Regional Weather Roundup
Issued by NWS Little Rock, AR

Home | Current Version | Previous Version | Graphics & Text | Print | Product List | Glossary On
Versions: 1 2 3 4 5 6 7 8 9 10 11 12 13 14 15 16 17 18 19 20 21 22 23 24 25 26 27 28 29 30 31 32 33 34 35 36 37 38 39 40 41 42 43 44 45 46 47 48 49 50
000
ASUS44 KLZK 281305
RWRLZK

WEATHER ROUNDUP FOR ARKANSAS
NATIONAL WEATHER SERVICE LITTLE ROCK AR
800 AM CDT THU JUL 28 2016

NOTE: "FAIR" INDICATES FEW OR NO CLOUDS BELOW 12,000 FEET WITH NO
SIGNIFICANT WEATHER AND/OR OBSTRUCTIONS TO VISIBILITY.

ARZ001-003-010-029-281400-
NORTHWEST ARKANSAS

CITY           SKY/WX    TMP DP  RH WIND       PRES   REMARKS
FAYETTEVILLE   PTSUNNY   72  72 100 S3        30.01R
FORT SMITH     MOSUNNY   78  72  81 W5        29.97R
HARRISON       SUNNY     75  72  90 W5        30.00R
BENTONVILLE    CLOUDY    73  70  88 W3        30.02R VSB 1/2
ROGERS         CLOUDY    73  72  96 SW5       30.02R FOG
SILOAM SPGS    SUNNY     73  66  78 SW3       30.02S
HIGHFILL       CLOUDY    74  74 100 W6        30.01R FOG
SPRINGDALE     MOSUNNY   73  73 100 CALM      30.03R
$$

ARZ004-005-016-281400-
NORTH CENTRAL ARKANSAS

CITY           SKY/WX    TMP DP  RH WIND       PRES   REMARKS
BATESVILLE     SUNNY     75  73  94 CALM      29.95S
FLIPPIN        SUNNY     75  70  83 CALM      29.95R
MTN HOME       SUNNY     74  73  97 CALM      29.97S
$$

ARZ040-041-281400-
WEST CENTRAL ARKANSAS

CITY           SKY/WX    TMP DP  RH WIND       PRES   REMARKS
MENA             N/A    N/A N/A N/A MISG        N/A
MOUNT IDA      CLOUDY    75  73  93 CALM      29.97S
$$

ARZ009-017-025-026-028-281400-
NORTHEAST ARKANSAS

CITY           SKY/WX    TMP DP  RH WIND       PRES   REMARKS
CORNING          N/A     75  75 100 W6        29.94R
JONESBORO      CLOUDY    78  74  87 MISG      29.93R
NEWPORT        SUNNY     79  76  90 SW5       29.95R
WALNUT RIDGE   CLOUDY    75  72  88 W5        29.92S
BLYTHEVILLE    CLOUDY    77  75  93 W6        29.93R
$$

ARZ022-023-033-042-044-281400-
CENTRAL ARKANSAS

CITY           SKY/WX    TMP DP  RH WIND       PRES   REMARKS
LITTLE ROCK    CLOUDY    79  74  84 W6        29.96R
N LITTLE ROCK    N/A     75  73  95 CALM      29.94R
JACKSONVILLE   CLOUDY    77  76  99 SW6       29.95R
SEARCY         CLOUDY    76  75  97 W3        29.96S
HOT SPRINGS    CLOUDY    75  71  87 W3        29.99R
RUSSELLVILLE   PTSUNNY   77  76  96 S3        29.96R
$$

ARZ036-281400-
EAST ARKANSAS

CITY           SKY/WX    TMP DP  RH WIND       PRES   REMARKS
WEST MEMPHIS   CLOUDY    75  74  96 VRB5      29.93R
$$

ARZ050-053-066-070-073-281400-
SOUTHWEST ARKANSAS

CITY           SKY/WX    TMP DP  RH WIND       PRES   REMARKS
ARKADELPHIA    FAIR      75  74  96 SW5       29.99R
CAMDEN         CLOUDY    77  72  83 SW5       30.00R
TEXARKANA      HVY RAIN  73  72  96 SE7       30.01R FOG
EL DORADO      LGT RAIN  75  74  96 W7        30.01R
DE QUEEN       TSTM      75  74  96 CALM      29.98R FOG
$$

ARZ056-057-069-281400-
SOUTHEAST ARKANSAS

CITY           SKY/WX    TMP DP  RH WIND       PRES   REMARKS
PINE BLUFF     CLOUDY    76  73  91 SW8       29.97R
STUTTGART      CLOUDY    75  72  88 SW7       29.96R
MONTICELLO     CLOUDY    77  74  90 SW8       29.98S

$$





USA.gov is the U.S. government's official web portal to all federal, state and local government web resources and services.